Airfield :
LOGIN :

Register | Disclaimer

   EN    FR    IT 

 










Legend :    VFR   Marginal VFR   IFR   Intensive IFR   Very Intensive IFR
Visi :
Ceiling :
>= 8 km
>= 3000ft
5 to 8 km
1000 to 3000 ft
1500m to 5 km
500 to 1000 ft
800 to 1500m
200 to 500 ft
< 800m
< 200 ft
Symbols :   Thunderstorms  Fog  Heavy snow  Heavy precipitations  Wind > 20 kt
SIGMETs :     Misc.  Thunderstorms  Icing  Turbulence  Mountain Waves  Volcanic Ashes






- Airport Elevation : 26 ft


ETNT - Wittmundhaven AB

CURRENT METAR :
  • 031420Z 33006KT 9999 FEW026 SCT080 17/13 Q1013 BLU+BLU+ TEMPO WHT

EXPIRED METARs :
  • 031320Z 02005KT 9999 SCT030 SCT080 18/11 Q1013 BLU+BLU+ TEMPO WHT
  • 031220Z 36003KT 9999 FEW034 BKN080 19/11 Q1013 BLU BLU+ TEMPO WHT

TAF TAF ETNT
Valid from the 03 at 14:00 until the 03 at 23:00 UTC


031300Z 0314/0323 03005KT 9999 NSW FEW025 BKN060
TEMPO 0314/0317 02008KT 6000 -SHRA BKN022TCU BY ETGL



MET'MAP, your aeronautical weather chart ! - Copyright ORBIFLY December 2007 - Disclaimer

ORBIFLY MET'MAP TEAM :

Programming & Development : Alexandra Zaïnal
Concept & original design : Baudouin d'Aumeries
Assistance for programming : Marc-Olivier Méhu
Technical & hardware support : Manuel Goepfert

Contact : metmap@orbifly.com




SOURCES & CREDITS :

   NOAA